Regional Weather Roundup
Issued by NWS Kansas City/Pleasant Hill, MO

Home | Current Version | Previous Version | Text Only | Print | Product List | Glossary On
Versions: 1 2 3 4 5 6 7 8 9 10 11 12 13 14 15 16 17 18 19 20 21 22 23 24 25 26 27 28 29 30 31 32 33 34 35 36 37 38 39 40 41 42 43 44 45 46 47 48 49 50
000
ASUS43 KEAX 302211
RWREAX

WEATHER ROUNDUP FOR EASTERN KANSAS AND NORTHWEST MISSOURI
NATIONAL WEATHER SERVICE KANSAS CITY/PLEASANT HILL MO
500 PM CDT SAT AUG 30 2014

KSZ040-057-103>105-MOZ028-029-037-043-302300-
...KANSAS CITY METROPOLITAN AREA...

CITY           SKY/WX    TMP DP  RH WIND       PRES   REMARKS
K.C. INTL      MOSUNNY   85  66  53 W5        29.89F
K.C. DOWNTOWN  SUNNY     88  65  46 W6        29.87F HX  90
LEES SUMMIT    SUNNY     86  66  51 CALM      29.89F
OLATHE - IXD   SUNNY     89  62  40 N5        29.89F
OLATHE - OJC   MOSUNNY   88  64  44 E6        29.88F
LAWRENCE       SUNNY     92  65  40 CALM      29.87F HX  94

$$

MOZ001>008-011>017-020>025-030>033-038>040-044>046-053-054-302300-
...NORTHERN AND CENTRAL MISSOURI...

CITY           SKY/WX    TMP DP  RH WIND       PRES   REMARKS
ST. JOSEPH     PTSUNNY   84  68  58 S3        29.88F
MOSBY          CLEAR     84  64  51 CALM      29.88S
WHITEMAN AFB   SUNNY     87  67  51 W6        29.87F
CLINTON        SUNNY     90  68  48 CALM      29.87F HX  93
SEDALIA        SUNNY     89  66  46 NW6       29.89F HX  91
WARSAW         NOT AVBL
MARSHALL       MOSUNNY   88  70  55 NW3       29.89F HX  92
CHILLICOTHE      N/A     86  67  52 CALM      29.89F
MOBERLY        SUNNY     88  66  48 W5        29.89F HX  90
KIRKSVILLE     MOSUNNY   85  67  54 W7        29.90F

$$

MOZ041-047>049-056>058-063>065-088>090-097-302300-
...EASTERN AND SOUTHERN MISSOURI...

CITY           SKY/WX    TMP DP  RH WIND       PRES   REMARKS
ST. LOUIS INTL PTSUNNY   85  72  65 VRB6      29.90S HX  91
SPIRIT OF STL  PTSUNNY   83  72  69 CALM      29.87F
COLUMBIA       PTSUNNY   83  68  60 CALM      29.88F
JEFFERSON CITY PTSUNNY   84  72  67 E6        29.87R
MEXICO         PTSUNNY   86  77  74 S7        29.88  HX  97
ROLLA          LGT RAIN  70  68  93 SE8       29.92F FOG
LEBANON        PTSUNNY   79  70  73 S3        29.93S
OSAGE BEACH    PTSUNNY   81  70  69 SE6       29.90S
SPRINGFIELD    CLOUDY    75  65  70 NW13G20   29.94R THUNDER
BRANSON        MOSUNNY   91  66  43 S8        29.94F HX  94
NEVADA         SUNNY     91  64  40 SW6       29.88F HX  93
JOPLIN         PTSUNNY   92  61  35 N6        29.87F HX  92
WEST PLAINS    PTSUNNY   80  69  69 S7        29.96F

$$

IAZ060-094-KSZ022-034>040-054-083-096-NEZ052-066-093-302300-
...KANSAS...SOUTHEAST NEBRASKA AND IOWA...

CITY           SKY/WX    TMP DP  RH WIND       PRES   REMARKS
TOPEKA         SUNNY     90  63  40 VRB3      29.87F HX  91
MANHATTAN      SUNNY     91  60  35 VRB6      29.86F HX  90
EMPORIA        SUNNY     91  57  31 E3        29.88F
CHANUTE        SUNNY     94  57  28 VRB3G17   29.86F HX  92
WICHITA        MOSUNNY   93  56  28 VRB3      29.88F HX  91
OMAHA          MOSUNNY   81  64  56 SE8       29.88F
LINCOLN        SUNNY     85  61  44 SE5       29.87F
FALLS CITY     SUNNY     87  67  51 N3        29.87F HX  90
LAMONI         SUNNY     82  65  56 SW5       29.89F
DES MOINES     MOSUNNY   81  68  64 W5        29.86F

$$



USA.gov is the U.S. government's official web portal to all federal, state and local government web resources and services.